| time (UTC) | temp C | wind direction | speed KPH | gust KPH | rain 1hr cm | rain 24hr cm | rain mn cm | humidity % | barometer mb |
| 20260509005752 | 16 | 161 | 1.6 | 4.8 | 0.00 | 0.00 | 0.00 | 59 | 1024.7 |
| 20260509005249 | 16 | 219 | 6.4 | 11.3 | 0.00 | 0.00 | 0.00 | 59 | 1024.5 |
| 20260509004744 | 15 | 223 | 4.8 | 9.7 | 0.00 | 0.00 | 0.00 | 60 | 1024.4 |
| 20260509004241 | 16 | 226 | 8.0 | 11.3 | 0.00 | 0.00 | 0.00 | 59 | 1024.4 |
| 20260509003739 | 16 | 183 | 1.6 | 9.7 | 0.00 | 0.00 | 0.00 | 58 | 1024.6 |
| 20260509003236 | 16 | 223 | 9.7 | 11.3 | 0.00 | 0.00 | 0.00 | 57 | 1024.6 |
| 20260509002734 | 16 | 251 | 6.4 | 14.5 | 0.00 | 0.00 | 0.00 | 56 | 1024.5 |
| 20260509002231 | 16 | 224 | 8.0 | 11.3 | 0.00 | 0.00 | 0.00 | 56 | 1024.4 |
| 20260509001729 | 17 | 194 | 11.3 | 12.9 | 0.00 | 0.00 | 0.00 | 55 | 1024.6 |
| 20260509001224 | 16 | 174 | 4.8 | 12.9 | 0.00 | 0.00 | 0.00 | 56 | 1024.3 |
| 20260509000722 | 16 | 137 | 3.2 | 12.9 | 0.00 | 0.00 | 0.00 | 57 | 1024.5 |
| 20260509000219 | 17 | 162 | 4.8 | 11.3 | 0.00 | 0.00 | 0.00 | 55 | 1024.5 |
| 20260508235716 | 17 | 147 | 8.0 | 14.5 | 0.00 | 0.00 | 0.00 | 55 | 1024.7 |
| 20260508235212 | 17 | 234 | 6.4 | 12.9 | 0.00 | 0.00 | 0.00 | 55 | 1024.4 |
| 20260508234710 | 17 | 262 | 8.0 | 14.5 | 0.00 | 0.00 | 0.00 | 54 | 1024.4 |
| 20260508234206 | 17 | 144 | 8.0 | 14.5 | 0.00 | 0.00 | 0.00 | 54 | 1024.5 |
| 20260508233706 | 17 | 180 | 9.7 | 11.3 | 0.00 | 0.00 | 0.00 | 54 | 1024.3 |
| 20260508233203 | 17 | 189 | 8.0 | 16.1 | 0.00 | 0.00 | 0.00 | 55 | 1024.3 |
| 20260508232700 | 17 | 141 | 6.4 | 17.7 | 0.00 | 0.00 | 0.00 | 54 | 1024.4 |
| 20260508232156 | 17 | 232 | 9.7 | 12.9 | 0.00 | 0.00 | 0.00 | 54 | 1024.5 |
| 20260508231655 | 17 | 189 | 6.4 | 16.1 | 0.00 | 0.00 | 0.00 | 52 | 1024.3 |
| 20260508231151 | 16 | 200 | 4.8 | 9.7 | 0.00 | 0.00 | 0.00 | 54 | 1024.5 |
| 20260508230648 | 16 | 197 | 9.7 | 14.5 | 0.00 | 0.00 | 0.00 | 55 | 1024.3 |
| 20260508230144 | 16 | 231 | 6.4 | 11.3 | 0.00 | 0.00 | 0.00 | 54 | 1024.6 |
| 20260508225642 | 17 | 130 | 4.8 | 9.7 | 0.00 | 0.00 | 0.00 | 53 | 1024.6 |
| 20260508225138 | 17 | 157 | 6.4 | 14.5 | 0.00 | 0.00 | 0.00 | 52 | 1024.4 |
| 20260508224636 | 16 | 237 | 8.0 | 12.9 | 0.00 | 0.00 | 0.00 | 54 | 1024.6 |
| 20260508224134 | 16 | 226 | 11.3 | 14.5 | 0.00 | 0.00 | 0.00 | 53 | 1024.5 |
| 20260508223631 | 16 | 205 | 4.8 | 16.1 | 0.00 | 0.00 | 0.00 | 53 | 1024.5 |
| 20260508223128 | 16 | 226 | 9.7 | 22.5 | 0.00 | 0.00 | 0.00 | 53 | 1024.6 |
| 20260508222626 | 16 | 164 | 11.3 | 16.1 | 0.00 | 0.00 | 0.00 | 52 | 1024.7 |
| 20260508222122 | 16 | 282 | 12.9 | 16.1 | 0.00 | 0.00 | 0.00 | 55 | 1024.6 |
| 20260508221618 | 16 | 234 | 8.0 | 14.5 | 0.00 | 0.00 | 0.00 | 56 | 1024.3 |
| 20260508221114 | 16 | 261 | 11.3 | 11.3 | 0.00 | 0.00 | 0.00 | 55 | 1024.3 |
| 20260508220611 | 16 | 212 | 4.8 | 11.3 | 0.00 | 0.00 | 0.00 | 55 | 1024.6 |
| 20260508220108 | 16 | 191 | 11.3 | 12.9 | 0.00 | 0.00 | 0.00 | 55 | 1024.7 |
| 20260508215559 | 16 | 235 | 8.0 | 14.5 | 0.00 | 0.00 | 0.00 | 55 | 1024.6 |
| 20260508215056 | 16 | 230 | 4.8 | 9.7 | 0.00 | 0.00 | 0.00 | 56 | 1024.6 |
| 20260508214553 | 15 | 228 | 9.7 | 20.9 | 0.00 | 0.00 | 0.00 | 56 | 1024.7 |
| 20260508214049 | 16 | 240 | 9.7 | 22.5 | 0.00 | 0.00 | 0.00 | 55 | 1024.4 |
| 20260508213547 | 15 | 202 | 11.3 | 17.7 | 0.00 | 0.00 | 0.00 | 56 | 1024.7 |
| 20260508213043 | 15 | 189 | 3.2 | 16.1 | 0.00 | 0.00 | 0.00 | 57 | 1024.5 |
| 20260508212539 | 15 | 244 | 11.3 | 16.1 | 0.00 | 0.00 | 0.00 | 57 | 1024.5 |
| 20260508212036 | 15 | 186 | 8.0 | 16.1 | 0.00 | 0.00 | 0.00 | 57 | 1024.5 |
| 20260508211531 | 15 | 249 | 12.9 | 14.5 | 0.00 | 0.00 | 0.00 | 57 | 1024.5 |
| 20260508211028 | 15 | 268 | 11.3 | 14.5 | 0.00 | 0.00 | 0.00 | 57 | 1024.6 |
| 20260508210525 | 15 | 227 | 12.9 | 14.5 | 0.00 | 0.00 | 0.00 | 58 | 1024.4 |
| 20260508210022 | 15 | 205 | 4.8 | 9.7 | 0.00 | 0.00 | 0.00 | 60 | 1024.4 |
| 20260508205519 | 15 | 250 | 12.9 | 14.5 | 0.00 | 0.00 | 0.00 | 59 | 1024.5 |
| 20260508205015 | 15 | 244 | 11.3 | 16.1 | 0.00 | 0.00 | 0.00 | 59 | 1024.5 |
| 20260508204512 | 15 | 184 | 8.0 | 16.1 | 0.00 | 0.00 | 0.00 | 60 | 1024.0 |
| 20260508204008 | 14 | 208 | 8.0 | 14.5 | 0.00 | 0.00 | 0.00 | 60 | 1024.3 |
| 20260508203504 | 15 | 175 | 8.0 | 12.9 | 0.00 | 0.00 | 0.00 | 60 | 1024.2 |
| 20260508202959 | 15 | 254 | 12.9 | 17.7 | 0.00 | 0.00 | 0.00 | 60 | 1024.5 |
| 20260508202457 | 15 | 236 | 8.0 | 11.3 | 0.00 | 0.00 | 0.00 | 62 | 1024.1 |
| 20260508201954 | 14 | 201 | 8.0 | 11.3 | 0.00 | 0.00 | 0.00 | 61 | 1024.2 |
| 20260508201450 | 13 | 168 | 8.0 | 25.7 | 0.00 | 0.00 | 0.00 | 62 | 1024.2 |
| 20260508200947 | 14 | 163 | 11.3 | 20.9 | 0.00 | 0.00 | 0.00 | 61 | 1024.3 |
| 20260508200444 | 14 | 243 | 12.9 | 20.9 | 0.00 | 0.00 | 0.00 | 61 | 1024.4 |
| 20260508195938 | 13 | 224 | 6.4 | 11.3 | 0.00 | 0.00 | 0.00 | 62 | 1024.2 |
| 20260508195436 | 13 | 170 | 4.8 | 11.3 | 0.00 | 0.00 | 0.00 | 62 | 1024.2 |
| 20260508194932 | 13 | 181 | 16.1 | 17.7 | 0.00 | 0.00 | 0.00 | 61 | 1024.3 |
| 20260508194429 | 13 | 217 | 12.9 | 14.5 | 0.00 | 0.00 | 0.00 | 62 | 1024.4 |
| 20260508193926 | 13 | 163 | 6.4 | 11.3 | 0.00 | 0.00 | 0.00 | 62 | 1024.4 |
| 20260508193423 | 13 | 210 | 17.7 | 22.5 | 0.00 | 0.00 | 0.00 | 63 | 1024.3 |
| 20260508192919 | 13 | 207 | 4.8 | 11.3 | 0.00 | 0.00 | 0.00 | 64 | 1024.2 |
| 20260508192416 | 13 | 151 | 8.0 | 29.0 | 0.00 | 0.00 | 0.00 | 63 | 1024.3 |
| 20260508191913 | 13 | 163 | 6.4 | 11.3 | 0.00 | 0.00 | 0.00 | 64 | 1024.3 |
| 20260508191412 | 12 | 178 | 9.7 | 29.0 | 0.00 | 0.00 | 0.00 | 64 | 1024.1 |
| 20260508190908 | 12 | 248 | 9.7 | 20.9 | 0.00 | 0.00 | 0.00 | 65 | 1024.1 |
| 20260508190405 | 12 | 170 | 14.5 | 22.5 | 0.00 | 0.00 | 0.00 | 67 | 1024.2 |
| 20260508185901 | 12 | 167 | 11.3 | 14.5 | 0.00 | 0.00 | 0.00 | 67 | 1024.2 |
| 20260508185359 | 12 | 293 | 6.4 | 11.3 | 0.00 | 0.00 | 0.00 | 69 | 1024.3 |
| 20260508184856 | 12 | 232 | 14.5 | 17.7 | 0.00 | 0.00 | 0.00 | 68 | 1024.2 |
| 20260508184353 | 12 | 136 | 8.0 | 11.3 | 0.00 | 0.00 | 0.00 | 69 | 1024.3 |
| 20260508183849 | 12 | 214 | 14.5 | 22.5 | 0.00 | 0.00 | 0.00 | 69 | 1024.3 |
| 20260508183346 | 12 | 196 | 9.7 | 16.1 | 0.00 | 0.00 | 0.00 | 69 | 1024.2 |
| 20260508182842 | 12 | 184 | 8.0 | 11.3 | 0.00 | 0.00 | 0.00 | 70 | 1024.1 |
| 20260508182339 | 12 | 187 | 9.7 | 17.7 | 0.00 | 0.00 | 0.00 | 69 | 1024.1 |
| 20260508181834 | 12 | 239 | 6.4 | 9.7 | 0.00 | 0.00 | 0.00 | 69 | 1024.0 |
| 20260508181331 | 12 | 211 | 3.2 | 14.5 | 0.00 | 0.00 | 0.00 | 68 | 1024.0 |
| 20260508180828 | 12 | 242 | 8.0 | 12.9 | 0.00 | 0.00 | 0.00 | 69 | 1023.9 |
| 20260508180325 | 12 | 155 | 6.4 | 12.9 | 0.00 | 0.00 | 0.00 | 69 | 1023.7 |
| 20260508175821 | 12 | 119 | 4.8 | 14.5 | 0.00 | 0.00 | 0.00 | 69 | 1023.7 |
| 20260508175318 | 12 | 181 | 8.0 | 12.9 | 0.00 | 0.00 | 0.00 | 68 | 1023.6 |
| 20260508174816 | 12 | 205 | 12.9 | 17.7 | 0.00 | 0.00 | 0.00 | 69 | 1023.7 |
| 20260508174313 | 12 | 156 | 12.9 | 16.1 | 0.00 | 0.00 | 0.00 | 70 | 1023.5 |
| 20260508173809 | 12 | 192 | 9.7 | 12.9 | 0.00 | 0.00 | 0.00 | 70 | 1023.5 |
| 20260508173307 | 11 | 164 | 8.0 | 20.9 | 0.00 | 0.00 | 0.00 | 72 | 1023.5 |
| 20260508172802 | 11 | 208 | 8.0 | 12.9 | 0.00 | 0.00 | 0.00 | 73 | 1023.3 |
| 20260508172300 | 11 | 174 | 4.8 | 11.3 | 0.00 | 0.00 | 0.00 | 73 | 1023.1 |
| 20260508171755 | 11 | 167 | 3.2 | 8.0 | 0.00 | 0.00 | 0.00 | 74 | 1023.1 |
| 20260508171252 | 11 | 191 | 11.3 | 16.1 | 0.00 | 0.00 | 0.00 | 73 | 1023.1 |
| 20260508170749 | 11 | 206 | 8.0 | 11.3 | 0.00 | 0.00 | 0.00 | 73 | 1023.1 |
| 20260508170247 | 11 | 193 | 8.0 | 11.3 | 0.00 | 0.00 | 0.00 | 73 | 1023.1 |
| 20260508165744 | 11 | 198 | 3.2 | 11.3 | 0.00 | 0.00 | 0.00 | 74 | 1022.9 |
| 20260508165241 | 11 | 179 | 6.4 | 11.3 | 0.00 | 0.00 | 0.00 | 75 | 1023.2 |
| 20260508164737 | 11 | 218 | 4.8 | 8.0 | 0.00 | 0.00 | 0.00 | 75 | 1022.8 |
| 20260508164233 | 11 | 230 | 8.0 | 8.0 | 0.00 | 0.00 | 0.00 | 74 | 1022.7 |
| 20260508163732 | 11 | 174 | 0.0 | 4.8 | 0.00 | 0.00 | 0.00 | 74 | 1022.8 |
| 20260508163229 | 11 | 169 | 3.2 | 9.7 | 0.00 | 0.00 | 0.00 | 73 | 1022.7 |
| 20260508162725 | 11 | 213 | 6.4 | 9.7 | 0.00 | 0.00 | 0.00 | 73 | 1022.9 |
| 20260508162222 | 11 | 250 | 8.0 | 9.7 | 0.00 | 0.00 | 0.00 | 73 | 1022.7 |
| 20260508161719 | 11 | 225 | 4.8 | 9.7 | 0.00 | 0.00 | 0.00 | 73 | 1022.7 |
| 20260508161216 | 11 | 194 | 3.2 | 4.8 | 0.00 | 0.00 | 0.00 | 73 | 1022.7 |
| 20260508160714 | 11 | 138 | 3.2 | 9.7 | 0.00 | 0.00 | 0.00 | 72 | 1022.6 |
| 20260508160212 | 11 | 133 | 4.8 | 4.8 | 0.00 | 0.00 | 0.00 | 72 | 1022.8 |
| 20260508155708 | 11 | 231 | 6.4 | 12.9 | 0.00 | 0.00 | 0.00 | 73 | 1022.5 |
| 20260508155205 | 11 | 163 | 1.6 | 4.8 | 0.00 | 0.00 | 0.00 | 74 | 1022.6 |
| 20260508154702 | 11 | 176 | 8.0 | 9.7 | 0.00 | 0.00 | 0.00 | 74 | 1022.5 |
| 20260508154159 | 11 | 197 | 6.4 | 11.3 | 0.00 | 0.00 | 0.00 | 74 | 1022.9 |
| 20260508153656 | 11 | 202 | 9.7 | 12.9 | 0.00 | 0.00 | 0.00 | 74 | 1022.6 |
| 20260508153153 | 11 | 156 | 8.0 | 11.3 | 0.00 | 0.00 | 0.00 | 75 | 1022.8 |
| 20260508152649 | 11 | 254 | 8.0 | 12.9 | 0.00 | 0.00 | 0.00 | 75 | 1022.8 |
| 20260508152145 | 11 | 212 | 11.3 | 17.7 | 0.00 | 0.00 | 0.00 | 74 | 1022.8 |
| 20260508151642 | 11 | 224 | 8.0 | 16.1 | 0.00 | 0.00 | 0.00 | 75 | 1022.8 |
| 20260508151139 | 11 | 199 | 12.9 | 20.9 | 0.00 | 0.00 | 0.00 | 75 | 1022.9 |
| 20260508150637 | 11 | 252 | 11.3 | 12.9 | 0.00 | 0.00 | 0.00 | 75 | 1022.8 |
| 20260508150133 | 11 | 192 | 6.4 | 12.9 | 0.00 | 0.00 | 0.00 | 77 | 1022.7 |
| 20260508145629 | 11 | 214 | 6.4 | 9.7 | 0.00 | 0.00 | 0.00 | 77 | 1022.6 |
| 20260508145125 | 11 | 211 | 8.0 | 12.9 | 0.00 | 0.00 | 0.00 | 77 | 1022.7 |
| 20260508144623 | 10 | 177 | 4.8 | 14.5 | 0.00 | 0.00 | 0.00 | 79 | 1022.6 |
| 20260508144115 | 10 | 219 | 11.3 | 16.1 | 0.00 | 0.00 | 0.00 | 79 | 1022.5 |
| 20260508143612 | 10 | 187 | 11.3 | 14.5 | 0.00 | 0.00 | 0.00 | 80 | 1022.2 |
| 20260508143108 | 10 | 218 | 8.0 | 12.9 | 0.00 | 0.00 | 0.00 | 81 | 1022.3 |
| 20260508142605 | 10 | 216 | 6.4 | 12.9 | 0.00 | 0.00 | 0.00 | 80 | 1022.1 |
| 20260508142102 | 10 | 178 | 14.5 | 20.9 | 0.00 | 0.00 | 0.00 | 81 | 1022.2 |
| 20260508141559 | 10 | 221 | 9.7 | 14.5 | 0.00 | 0.00 | 0.00 | 82 | 1022.0 |
| 20260508141056 | 10 | 201 | 8.0 | 14.5 | 0.00 | 0.00 | 0.00 | 82 | 1022.0 |
| 20260508140553 | 10 | 152 | 11.3 | 12.9 | 0.00 | 0.00 | 0.00 | 82 | 1021.9 |
| 20260508140049 | 10 | 210 | 9.7 | 14.5 | 0.00 | 0.00 | 0.00 | 83 | 1021.9 |
| 20260508135544 | 10 | 105 | 4.8 | 8.0 | 0.00 | 0.00 | 0.00 | 83 | 1021.5 |
| 20260508135041 | 10 | 181 | 3.2 | 11.3 | 0.00 | 0.00 | 0.00 | 82 | 1021.6 |
| 20260508134538 | 10 | 214 | 8.0 | 11.3 | 0.00 | 0.00 | 0.00 | 83 | 1021.5 |
| 20260508134035 | 10 | 197 | 11.3 | 14.5 | 0.00 | 0.00 | 0.00 | 83 | 1021.5 |
| 20260508133532 | 10 | 139 | 4.8 | 11.3 | 0.00 | 0.00 | 0.00 | 83 | 1021.3 |
| 20260508133029 | 10 | 206 | 4.8 | 11.3 | 0.00 | 0.00 | 0.00 | 84 | 1021.2 |
| 20260508132527 | 10 | 184 | 6.4 | 11.3 | 0.00 | 0.00 | 0.00 | 84 | 1021.4 |
| 20260508132023 | 10 | 200 | 6.4 | 11.3 | 0.00 | 0.00 | 0.00 | 84 | 1021.2 |
| 20260508131518 | 10 | 184 | 4.8 | 4.8 | 0.00 | 0.00 | 0.00 | 84 | 1021.0 |
| 20260508131015 | 10 | 197 | 4.8 | 9.7 | 0.00 | 0.00 | 0.00 | 83 | 1021.0 |
| 20260508130513 | 10 | 180 | 9.7 | 12.9 | 0.00 | 0.00 | 0.00 | 84 | 1021.0 |
| 20260508130009 | 10 | 201 | 6.4 | 9.7 | 0.00 | 0.00 | 0.00 | 83 | 1021.0 |
| 20260508125505 | 10 | 150 | 4.8 | 12.9 | 0.00 | 0.00 | 0.00 | 83 | 1021.0 |
| 20260508125002 | 10 | 210 | 6.4 | 12.9 | 0.00 | 0.00 | 0.00 | 83 | 1020.8 |
| 20260508124500 | 10 | 222 | 6.4 | 8.0 | 0.00 | 0.00 | 0.00 | 83 | 1020.7 |
| 20260508123957 | 10 | 190 | 3.2 | 11.3 | 0.00 | 0.00 | 0.00 | 83 | 1020.5 |
| 20260508123456 | 10 | 211 | 6.4 | 9.7 | 0.00 | 0.00 | 0.00 | 83 | 1020.7 |
| 20260508122952 | 10 | 210 | 6.4 | 8.0 | 0.00 | 0.00 | 0.00 | 84 | 1020.6 |
| 20260508122449 | 10 | 210 | 4.8 | 11.3 | 0.00 | 0.00 | 0.00 | 84 | 1020.6 |
| 20260508121946 | 10 | 216 | 4.8 | 9.7 | 0.00 | 0.00 | 0.00 | 84 | 1020.4 |
| 20260508121444 | 10 | 206 | 4.8 | 12.9 | 0.00 | 0.00 | 0.00 | 84 | 1020.6 |
| 20260508120942 | 10 | 207 | 3.2 | 9.7 | 0.00 | 0.00 | 0.00 | 84 | 1020.3 |
| 20260508120439 | 10 | 179 | 3.2 | 8.0 | 0.00 | 0.00 | 0.00 | 84 | 1020.3 |
| 20260508115937 | 10 | 134 | 6.4 | 8.0 | 0.00 | 0.00 | 0.00 | 84 | 1020.3 |
| 20260508115435 | 10 | 158 | 3.2 | 3.2 | 0.00 | 0.00 | 0.00 | 83 | 1020.4 |
| 20260508114931 | 10 | 216 | 3.2 | 4.8 | 0.00 | 0.00 | 0.00 | 84 | 1020.2 |
| 20260508114428 | 10 | 186 | 3.2 | 8.0 | 0.00 | 0.00 | 0.00 | 84 | 1020.2 |
| 20260508113924 | 10 | 182 | 1.6 | 8.0 | 0.00 | 0.00 | 0.00 | 84 | 1020.5 |
| 20260508113422 | 10 | 192 | 8.0 | 8.0 | 0.00 | 0.00 | 0.00 | 85 | 1020.3 |
| 20260508112919 | 10 | 180 | 3.2 | 8.0 | 0.00 | 0.00 | 0.00 | 85 | 1020.3 |
| 20260508112416 | 10 | 174 | 1.6 | 8.0 | 0.00 | 0.00 | 0.00 | 84 | 1020.1 |
| 20260508111913 | 10 | 188 | 4.8 | 8.0 | 0.00 | 0.00 | 0.00 | 84 | 1019.8 |
| 20260508111410 | 10 | 224 | 8.0 | 11.3 | 0.00 | 0.00 | 0.00 | 84 | 1020.1 |
| 20260508110907 | 10 | 185 | 1.6 | 3.2 | 0.00 | 0.00 | 0.00 | 85 | 1020.2 |
| 20260508110405 | 10 | 212 | 6.4 | 8.0 | 0.00 | 0.00 | 0.00 | 85 | 1020.1 |
| 20260508105904 | 10 | 140 | 4.8 | 4.8 | 0.00 | 0.00 | 0.00 | 86 | 1019.9 |
| 20260508105400 | 10 | 191 | 3.2 | 4.8 | 0.00 | 0.00 | 0.00 | 87 | 1019.6 |
| 20260508104858 | 10 | 176 | 3.2 | 3.2 | 0.00 | 0.00 | 0.00 | 88 | 1020.0 |
| 20260508104355 | 10 | 146 | 0.0 | 3.2 | 0.00 | 0.00 | 0.00 | 90 | 1019.6 |
| 20260508103852 | 10 | 182 | 3.2 | 4.8 | 0.00 | 0.00 | 0.00 | 92 | 1019.7 |
| 20260508103349 | 10 | 179 | 3.2 | 4.8 | 0.00 | 0.00 | 0.00 | 93 | 1019.7 |
| 20260508102846 | 10 | 167 | 1.6 | 4.8 | 0.00 | 0.00 | 0.00 | 94 | 1019.6 |
| 20260508102344 | 9 | 167 | 3.2 | 4.8 | 0.00 | 0.00 | 0.00 | 95 | 1019.3 |
| 20260508101841 | 9 | 184 | 0.0 | 1.6 | 0.00 | 0.00 | 0.00 | 95 | 1019.8 |
| 20260508101339 | 8 | 163 | 0.0 | 0.0 | 0.00 | 0.00 | 0.00 | 95 | 1019.7 |
| 20260508100836 | 8 | 164 | 0.0 | 3.2 | 0.00 | 0.00 | 0.00 | 95 | 1019.8 |
| 20260508100335 | 8 | 150 | 0.0 | 0.0 | 0.00 | 0.00 | 0.00 | 95 | 1019.5 |
| 20260508095830 | 8 | 156 | 0.0 | 0.0 | 0.00 | 0.00 | 0.00 | 95 | 1019.5 |
| 20260508095328 | 8 | 159 | 0.0 | 0.0 | 0.00 | 0.00 | 0.00 | 95 | 1019.6 |
| 20260508094825 | 8 | 152 | 0.0 | 0.0 | 0.00 | 0.00 | 0.00 | 95 | 1019.3 |
| 20260508094322 | 8 | 152 | 0.0 | 0.0 | 0.00 | 0.00 | 0.00 | 94 | 1019.8 |
| 20260508093819 | 8 | 154 | 0.0 | 0.0 | 0.00 | 0.00 | 0.00 | 94 | 1019.5 |
| 20260508093316 | 8 | 155 | 0.0 | 0.0 | 0.00 | 0.00 | 0.00 | 94 | 1019.6 |
| 20260508092813 | 8 | 155 | 0.0 | 0.0 | 0.00 | 0.00 | 0.00 | 94 | 1019.5 |
| 20260508092313 | 8 | 149 | 0.0 | 0.0 | 0.00 | 0.00 | 0.00 | 94 | 1019.6 |
| 20260508091809 | 8 | 155 | 0.0 | 0.0 | 0.00 | 0.00 | 0.00 | 94 | 1019.5 |
| 20260508091305 | 8 | 151 | 0.0 | 0.0 | 0.00 | 0.00 | 0.00 | 94 | 1019.5 |
| 20260508090803 | 8 | 151 | 0.0 | 0.0 | 0.00 | 0.00 | 0.00 | 94 | 1019.7 |
| 20260508090301 | 8 | 149 | 0.0 | 0.0 | 0.00 | 0.00 | 0.00 | 94 | 1019.3 |
| 20260508085757 | 8 | 149 | 0.0 | 0.0 | 0.00 | 0.00 | 0.00 | 93 | 1019.5 |
| 20260508085254 | 9 | 149 | 0.0 | 0.0 | 0.00 | 0.00 | 0.00 | 93 | 1019.5 |
| 20260508084750 | 9 | 149 | 0.0 | 0.0 | 0.00 | 0.00 | 0.00 | 93 | 1019.4 |
| 20260508084247 | 9 | 149 | 0.0 | 0.0 | 0.00 | 0.00 | 0.00 | 93 | 1019.2 |
| 20260508083745 | 9 | 149 | 0.0 | 0.0 | 0.00 | 0.00 | 0.00 | 93 | 1019.3 |
| 20260508083243 | 9 | 149 | 0.0 | 0.0 | 0.00 | 0.00 | 0.00 | 93 | 1019.3 |
| 20260508082742 | 9 | 149 | 0.0 | 0.0 | 0.00 | 0.00 | 0.00 | 93 | 1019.4 |
| 20260508082240 | 9 | 148 | 0.0 | 0.0 | 0.00 | 0.00 | 0.00 | 92 | 1019.1 |
| 20260508081737 | 9 | 149 | 0.0 | 0.0 | 0.00 | 0.00 | 0.00 | 92 | 1019.2 |
| 20260508081234 | 9 | 148 | 0.0 | 0.0 | 0.00 | 0.00 | 0.00 | 92 | 1019.3 |
| 20260508080731 | 9 | 149 | 0.0 | 0.0 | 0.00 | 0.00 | 0.00 | 92 | 1019.5 |
| 20260508080229 | 9 | 148 | 0.0 | 0.0 | 0.00 | 0.00 | 0.00 | 91 | 1019.2 |
| 20260508075725 | 9 | 148 | 0.0 | 0.0 | 0.00 | 0.00 | 0.00 | 91 | 1019.3 |
| 20260508075222 | 9 | 154 | 0.0 | 0.0 | 0.00 | 0.00 | 0.00 | 91 | 1019.4 |
| 20260508074720 | 9 | 148 | 0.0 | 0.0 | 0.00 | 0.00 | 0.00 | 91 | 1019.1 |
| 20260508074218 | 9 | 137 | 0.0 | 0.0 | 0.00 | 0.00 | 0.00 | 91 | 1019.3 |
| 20260508073714 | 9 | 136 | 0.0 | 0.0 | 0.00 | 0.00 | 0.00 | 91 | 1019.1 |
| 20260508073212 | 9 | 148 | 0.0 | 0.0 | 0.00 | 0.00 | 0.00 | 90 | 1019.3 |
| 20260508072708 | 9 | 152 | 0.0 | 0.0 | 0.00 | 0.00 | 0.00 | 90 | 1019.4 |
| 20260508072205 | 9 | 145 | 0.0 | 0.0 | 0.00 | 0.00 | 0.00 | 90 | 1019.3 |
| 20260508071702 | 9 | 145 | 0.0 | 0.0 | 0.00 | 0.00 | 0.00 | 89 | 1019.5 |
| 20260508071201 | 9 | 163 | 0.0 | 0.0 | 0.00 | 0.00 | 0.00 | 89 | 1019.4 |
| 20260508070657 | 9 | 145 | 0.0 | 0.0 | 0.00 | 0.00 | 0.00 | 89 | 1019.5 |
| 20260508070156 | 9 | 149 | 0.0 | 0.0 | 0.00 | 0.00 | 0.00 | 89 | 1019.5 |
| 20260508065653 | 9 | 149 | 0.0 | 0.0 | 0.00 | 0.00 | 0.00 | 88 | 1019.5 |
| 20260508065151 | 10 | 148 | 0.0 | 0.0 | 0.00 | 0.00 | 0.00 | 88 | 1019.6 |
| 20260508064648 | 10 | 149 | 0.0 | 0.0 | 0.00 | 0.00 | 0.00 | 87 | 1019.5 |
| 20260508064146 | 10 | 149 | 0.0 | 0.0 | 0.00 | 0.00 | 0.00 | 87 | 1019.5 |
| 20260508063643 | 10 | 148 | 0.0 | 0.0 | 0.00 | 0.00 | 0.00 | 87 | 1019.3 |
| 20260508063141 | 10 | 148 | 0.0 | 0.0 | 0.00 | 0.00 | 0.00 | 87 | 1019.3 |
| 20260508062638 | 10 | 149 | 0.0 | 0.0 | 0.00 | 0.00 | 0.00 | 87 | 1019.2 |
| 20260508062135 | 10 | 148 | 0.0 | 0.0 | 0.00 | 0.00 | 0.00 | 88 | 1019.2 |
| 20260508061632 | 10 | 148 | 0.0 | 0.0 | 0.00 | 0.00 | 0.00 | 88 | 1019.4 |
| 20260508061130 | 10 | 149 | 0.0 | 0.0 | 0.00 | 0.00 | 0.00 | 88 | 1019.3 |
| 20260508060626 | 10 | 149 | 0.0 | 0.0 | 0.00 | 0.00 | 0.00 | 87 | 1019.4 |
| 20260508060124 | 10 | 149 | 0.0 | 0.0 | 0.00 | 0.00 | 0.00 | 87 | 1019.4 |
| 20260508055619 | 10 | 149 | 0.0 | 0.0 | 0.00 | 0.00 | 0.00 | 86 | 1019.5 |
| 20260508055116 | 10 | 148 | 0.0 | 0.0 | 0.00 | 0.00 | 0.00 | 86 | 1019.1 |
| 20260508054613 | 10 | 157 | 0.0 | 0.0 | 0.00 | 0.00 | 0.00 | 85 | 1019.5 |
| 20260508054110 | 10 | 165 | 0.0 | 0.0 | 0.00 | 0.00 | 0.00 | 85 | 1019.5 |
| 20260508053607 | 10 | 149 | 0.0 | 0.0 | 0.00 | 0.00 | 0.00 | 85 | 1019.5 |
| 20260508053105 | 10 | 149 | 0.0 | 0.0 | 0.00 | 0.00 | 0.00 | 84 | 1019.4 |
| 20260508052602 | 11 | 149 | 0.0 | 0.0 | 0.00 | 0.00 | 0.00 | 84 | 1019.4 |
| 20260508052059 | 11 | 149 | 0.0 | 0.0 | 0.00 | 0.00 | 0.00 | 83 | 1019.5 |
| 20260508051555 | 11 | 149 | 0.0 | 0.0 | 0.00 | 0.00 | 0.00 | 83 | 1019.4 |
| 20260508051050 | 11 | 149 | 0.0 | 0.0 | 0.00 | 0.00 | 0.00 | 83 | 1019.7 |
| 20260508050547 | 11 | 149 | 0.0 | 0.0 | 0.00 | 0.00 | 0.00 | 83 | 1019.5 |
| 20260508050044 | 11 | 149 | 0.0 | 0.0 | 0.00 | 0.00 | 0.00 | 83 | 1019.5 |
| 20260508045540 | 11 | 149 | 0.0 | 0.0 | 0.00 | 0.00 | 0.00 | 83 | 1019.6 |
| 20260508045038 | 11 | 149 | 0.0 | 0.0 | 0.00 | 0.00 | 0.00 | 82 | 1019.5 |
| 20260508044535 | 11 | 149 | 0.0 | 0.0 | 0.00 | 0.00 | 0.00 | 82 | 1019.6 |
| 20260508044031 | 11 | 149 | 0.0 | 0.0 | 0.00 | 0.00 | 0.00 | 82 | 1019.8 |
| 20260508043528 | 11 | 149 | 0.0 | 0.0 | 0.00 | 0.00 | 0.00 | 81 | 1019.7 |
| 20260508043026 | 11 | 149 | 0.0 | 0.0 | 0.00 | 0.00 | 0.00 | 80 | 1019.7 |
| 20260508042522 | 11 | 149 | 0.0 | 0.0 | 0.00 | 0.00 | 0.00 | 80 | 1019.7 |
| 20260508042020 | 12 | 149 | 0.0 | 0.0 | 0.00 | 0.00 | 0.00 | 80 | 1019.7 |
| 20260508041515 | 12 | 149 | 0.0 | 0.0 | 0.00 | 0.00 | 0.00 | 80 | 1019.6 |
| 20260508041012 | 12 | 149 | 0.0 | 0.0 | 0.00 | 0.00 | 0.00 | 79 | 1019.7 |
| 20260508040509 | 12 | 149 | 0.0 | 0.0 | 0.00 | 0.00 | 0.00 | 79 | 1019.7 |
| 20260508040007 | 12 | 149 | 0.0 | 0.0 | 0.00 | 0.00 | 0.00 | 79 | 1019.5 |
| 20260508035504 | 12 | 149 | 0.0 | 0.0 | 0.00 | 0.00 | 0.00 | 79 | 1019.8 |
| 20260508035000 | 12 | 149 | 0.0 | 0.0 | 0.00 | 0.00 | 0.00 | 78 | 1019.5 |
| 20260508034458 | 13 | 149 | 0.0 | 0.0 | 0.00 | 0.00 | 0.00 | 77 | 1019.6 |
| 20260508033954 | 13 | 149 | 0.0 | 0.0 | 0.00 | 0.00 | 0.00 | 76 | 1019.3 |
| 20260508033452 | 13 | 149 | 0.0 | 0.0 | 0.00 | 0.00 | 0.00 | 75 | 1019.4 |
| 20260508032950 | 13 | 149 | 0.0 | 0.0 | 0.00 | 0.00 | 0.00 | 74 | 1019.5 |
| 20260508032447 | 13 | 149 | 0.0 | 0.0 | 0.00 | 0.00 | 0.00 | 72 | 1019.4 |
| 20260508031944 | 14 | 149 | 0.0 | 0.0 | 0.00 | 0.00 | 0.00 | 71 | 1019.2 |
| 20260508031441 | 14 | 149 | 0.0 | 0.0 | 0.00 | 0.00 | 0.00 | 71 | 1019.4 |
| 20260508030937 | 14 | 149 | 0.0 | 0.0 | 0.00 | 0.00 | 0.00 | 70 | 1019.5 |
| 20260508030434 | 15 | 149 | 0.0 | 0.0 | 0.00 | 0.00 | 0.00 | 70 | 1019.4 |
| 20260508025931 | 15 | 150 | 0.0 | 0.0 | 0.00 | 0.00 | 0.00 | 69 | 1019.3 |
| 20260508025428 | 15 | 148 | 0.0 | 0.0 | 0.00 | 0.00 | 0.00 | 69 | 1019.4 |
| 20260508024919 | 15 | 150 | 0.0 | 0.0 | 0.00 | 0.00 | 0.00 | 69 | 1019.4 |
| 20260508024416 | 15 | 138 | 0.0 | 0.0 | 0.00 | 0.00 | 0.00 | 68 | 1019.5 |
| 20260508023913 | 16 | 157 | 0.0 | 0.0 | 0.00 | 0.00 | 0.00 | 68 | 1019.7 |
| 20260508023410 | 16 | 150 | 0.0 | 0.0 | 0.00 | 0.00 | 0.00 | 66 | 1019.5 |
| 20260508022906 | 17 | 158 | 0.0 | 0.0 | 0.00 | 0.00 | 0.00 | 62 | 1019.6 |
| 20260508022401 | 17 | 161 | 0.0 | 1.6 | 0.00 | 0.00 | 0.00 | 61 | 1019.6 |
| 20260508021858 | 17 | 164 | 0.0 | 3.2 | 0.00 | 0.00 | 0.00 | 60 | 1019.5 |
| 20260508021349 | 17 | 164 | 3.2 | 3.2 | 0.00 | 0.00 | 0.00 | 59 | 1019.7 |
| 20260508020845 | 17 | 168 | 1.6 | 3.2 | 0.00 | 0.00 | 0.00 | 54 | 1019.7 |
| 20260508020343 | 17 | 215 | 4.8 | 8.0 | 0.00 | 0.00 | 0.00 | 55 | 1019.8 |
| 20260508015840 | 17 | 199 | 3.2 | 3.2 | 0.00 | 0.00 | 0.00 | 57 | 1019.6 |
| 20260508015338 | 17 | 171 | 4.8 | 9.7 | 0.00 | 0.00 | 0.00 | 57 | 1020.0 |
| 20260508014834 | 17 | 172 | 4.8 | 11.3 | 0.00 | 0.00 | 0.00 | 56 | 1019.8 |
| 20260508014332 | 17 | 183 | 1.6 | 4.8 | 0.00 | 0.00 | 0.00 | 56 | 1019.8 |
| 20260508013831 | 17 | 151 | 3.2 | 8.0 | 0.00 | 0.00 | 0.00 | 55 | 1020.1 |
| 20260508013328 | 17 | 173 | 1.6 | 3.2 | 0.00 | 0.00 | 0.00 | 56 | 1019.9 |
| 20260508012826 | 17 | 155 | 1.6 | 3.2 | 0.00 | 0.00 | 0.00 | 54 | 1020.0 |
| 20260508012323 | 18 | 169 | 3.2 | 3.2 | 0.00 | 0.00 | 0.00 | 52 | 1020.1 |
| 20260508011820 | 18 | 196 | 4.8 | 8.0 | 0.00 | 0.00 | 0.00 | 51 | 1020.0 |
| 20260508011318 | 18 | 208 | 3.2 | 4.8 | 0.00 | 0.00 | 0.00 | 51 | 1019.9 |
| 20260508010815 | 18 | 206 | 4.8 | 4.8 | 0.00 | 0.00 | 0.00 | 53 | 1020.0 |
| 20260508010313 | 18 | 171 | 3.2 | 4.8 | 0.00 | 0.00 | 0.00 | 53 | 1020.1 |